This is the latest recevied weather packets stored in our database for station/object WD9EKA. If no packets are shown the sender has not sent any weather packets the latest 10 day(s).
| Time | Temp. | Humidity | Pressure | Rain* | Wind** | Luminosity | Snow |
|---|---|---|---|---|---|---|---|
| 1777519474 | 8.33° C | 77% | 1012.2 hPa | 0 mm | - | - | - |
| 1777519168 | 8.33° C | 75% | 1012 hPa | 0 mm | - | - | - |
| 1777518849 | 8.89° C | 74% | 1012.2 hPa | 0 mm | - | - | - |
| 1777518528 | 8.89° C | 71% | 1012 hPa | 0 mm | - | - | - |
| 1777518214 | 9.44° C | 70% | 1011.8 hPa | 0 mm | - | - | - |
| 1777517854 | 9.44° C | 69% | 1011.8 hPa | 0 mm | - | - | - |
| 1777517493 | 9.44° C | 69% | 1012.2 hPa | 0 mm | - | - | - |
| 1777517133 | 10° C | 69% | 1011.8 hPa | 0 mm | - | - | - |
| 1777516774 | 10° C | 67% | 1011.8 hPa | 0 mm | - | - | - |
| 1777516414 | 10° C | 70% | 1011.8 hPa | 0 mm | - | - | - |
| 1777516112 | 10° C | 69% | 1011.5 hPa | 0 mm | - | - | - |
| 1777515792 | 10° C | 68% | 1011.6 hPa | 0 mm | - | - | - |
| 1777515472 | 10° C | 67% | 1011.6 hPa | 0 mm | - | - | - |
| 1777515152 | 10° C | 67% | 1011.3 hPa | 0 mm | - | - | - |
| 1777514833 | 10.56° C | 68% | 1011.3 hPa | 0 mm | - | - | - |
| 1777514513 | 10.56° C | 67% | 1011.2 hPa | 0 mm | - | - | - |
| 1777514192 | 10.56° C | 66% | 1011 hPa | 0 mm | - | - | - |
| 1777513872 | 10.56° C | 65% | 1011.1 hPa | 0 mm | - | - | - |
| 1777513552 | 10.56° C | 65% | 1010.7 hPa | 0 mm | - | - | - |
| 1777513232 | 10.56° C | 68% | 1010.7 hPa | 0 mm | - | - | - |
| 1777512913 | 10.56° C | 67% | 1010.6 hPa | 0 mm | - | - | - |
| 1777512592 | 11.11° C | 67% | 1010.5 hPa | 0 mm | - | - | - |
| 1777512272 | 11.11° C | 67% | 1010.3 hPa | 0 mm | - | - | - |
| 1777511953 | 11.11° C | 66% | 1010.5 hPa | 0 mm | - | - | - |
| 1777511632 | 11.11° C | 66% | 1010.5 hPa | 0 mm | - | - | - |
* Rain latest hour (hover to see other rain measurements)
** Current wind speed in m/s (hover to see current wind gust speed)